Weather History for Huron, SD

Change the Weather History Date:

Monday, January 30, 2012

  Actual Average Record
Temperature  
Mean Temperature 41 °F 18 °F  
Max Temperature 54 °F 28 °F 59 °F (1989)
Min Temperature 27 °F 7 °F -29 °F (1994)
Degree Days  
Heating Degree Days 24 47  
Month to date heating degree days 1241 1454  
Since 1 July heating degree days 3925 4574  
Cooling Degree Days 0 0  
Month to date cooling degree days 0 0  
Year to date cooling degree days 0 0  
Moisture  
Dew Point 29 °F    
Average Humidity 67    
Maximum Humidity 92    
Minimum Humidity 41    
Precipitation  
Precipitation 0.00 in 0.01 in 0.74 in (2001)
Month to date precipitation 0.73 0.48  
Year to date precipitation 0.73 0.48  
Snow  
Snow 0.00 in 0.30 in 9.30 in (2001)
Month to date snowfall 9.0 7.1  
Since 1 July snowfall 14.9 23.4  
Snow Depth 2.00 in    
Sea Level Pressure  
Sea Level Pressure 29.65 in    
Wind  
Wind Speed 5 mph (SSW)    
Max Wind Speed 10 mph    
Max Gust Speed 28 mph    
Visibility 10 miles    
Events      
T = Trace of Precipitation, MM = Missing Value Source: NWS Daily Summary

Daily Weather History Graph

Daily Weather History Graph

Search for Another Location

Airport:

Trip Planner

Search our weather history database for the weather conditions in past years. The results will help you decide how hot, cold, wet, or windy it might be!

Date:

Astronomy

Jan. 30, 2012 Rise Set
Actual Time 7:53 AM CST 5:38 PM CST
Civil Twilight 7:22 AM CST 6:10 PM CST
Nautical Twilight 6:47 AM CST 6:45 PM CST
Astronomical Twilight 6:13 AM CST 7:19 PM CST
Moon 10:57 AM CST (1/30) 12:43 AM CST (1/30)
Length of Visible Light 10h 47m
Length of Day
9h 45m
Waxing Crescent, 46% of the Moon is Illuminated
Jan 30
Waxing Crescent
Jan 30
First Quarter
Feb 7
Full
Feb 14
Last Quarter
Feb 21
New

Hourly Weather History & Observations

Time (CST) Temp. Windchill Dew Point Humidity Pressure Visibility Wind Dir Wind Speed Gust Speed Precip Events Conditions
12:55 AM 30.9 °F 24.3 °F 25.0 °F 79% 29.72 in 10.0 mi SSE 6.9 mph - N/A   Clear
1:55 AM 30.9 °F 26.2 °F 25.0 °F 79% 29.71 in 10.0 mi South 4.6 mph - N/A   Clear
2:55 AM 30.0 °F 24.1 °F 24.1 °F 79% 29.71 in 10.0 mi SSW 5.8 mph - N/A   Clear
3:55 AM 36.0 °F 31.1 °F 27.0 °F 70% 29.69 in 10.0 mi SW 5.8 mph - N/A   Mostly Cloudy
4:55 AM 36.0 °F 29.6 °F 27.0 °F 70% 29.68 in 10.0 mi WSW 8.1 mph - N/A   Clear
5:55 AM 37.0 °F 30.4 °F 27.0 °F 67% 29.68 in 10.0 mi WSW 9.2 mph - N/A   Clear
6:55 AM 37.0 °F 30.4 °F 27.0 °F 67% 29.68 in 10.0 mi WSW 9.2 mph - N/A   Clear
7:55 AM 36.0 °F 30.3 °F 26.1 °F 67% 29.68 in 10.0 mi WSW 6.9 mph - N/A   Clear
8:55 AM 32.0 °F - 25.0 °F 75% 29.70 in 10.0 mi Calm Calm - N/A   Clear
9:55 AM 43.0 °F 40.3 °F 27.0 °F 53% 29.68 in 10.0 mi South 4.6 mph - N/A   Clear
10:55 AM 44.1 °F 40.8 °F 28.9 °F 55% 29.68 in 10.0 mi SSE 5.8 mph - N/A   Clear
11:55 AM 50.0 °F - 30.0 °F 46% 29.68 in 10.0 mi South 3.5 mph - N/A   Clear
12:55 PM 50.0 °F - 32.0 °F 50% 29.65 in 10.0 mi SE 4.6 mph - N/A   Clear
1:55 PM 54.0 °F - 30.0 °F 40% 29.62 in 10.0 mi SSW 9.2 mph - N/A   Clear
2:55 PM 53.1 °F - 33.1 °F 47% 29.60 in 10.0 mi SE 4.6 mph - N/A   Clear
3:55 PM 50.0 °F - 34.0 °F 54% 29.60 in 10.0 mi SSE 4.6 mph - N/A   Clear
4:55 PM 46.0 °F 43.9 °F 34.0 °F 63% 29.59 in 10.0 mi SE 4.6 mph - N/A   Clear
5:55 PM 43.0 °F 39.5 °F 33.1 °F 68% 29.60 in 10.0 mi SE 5.8 mph - N/A   Clear
6:55 PM 39.9 °F 37.8 °F 33.1 °F 77% 29.59 in 10.0 mi SE 3.5 mph - N/A   Clear
7:55 PM 39.9 °F - 33.1 °F 77% 29.59 in 10.0 mi Calm Calm - N/A   Clear
8:55 PM 32.0 °F 26.4 °F 30.0 °F 92% 29.60 in 10.0 mi WNW 5.8 mph - N/A   Clear
9:55 PM 30.0 °F 23.2 °F 28.0 °F 92% 29.61 in 10.0 mi West 6.9 mph - N/A   Clear
10:55 PM 30.9 °F 26.2 °F 28.9 °F 92% 29.62 in 10.0 mi West 4.6 mph - N/A   Clear
11:55 PM 32.0 °F 26.4 °F 28.0 °F 85% 29.63 in 10.0 mi West 5.8 mph - N/A   Clear